TimeCST,TemperatureF,Dew PointF,Humidity,Sea Level PressureIn,VisibilityMPH,Wind Direction,Wind SpeedMPH,Gust SpeedMPH,PrecipitationIn,Events,Conditions,WindDirDegrees,DateUTC
12:53 AM,44.1,33.1,65,30.20,10.0,NNW,5.8,-,N/A,,Clear,340,2013-03-08 06:53:00
1:53 AM,37.9,33.1,83,30.20,10.0,Calm,Calm,-,N/A,,Clear,0,2013-03-08 07:53:00
2:53 AM,37.9,32.0,79,30.19,10.0,North,3.5,-,N/A,,Clear,360,2013-03-08 08:53:00
3:53 AM,37.0,30.9,79,30.20,10.0,North,4.6,-,N/A,,Clear,350,2013-03-08 09:53:00
4:53 AM,35.1,30.9,85,30.22,10.0,Calm,Calm,-,N/A,,Clear,0,2013-03-08 10:53:00
5:53 AM,35.1,30.9,85,30.23,10.0,North,4.6,-,N/A,,Clear,360,2013-03-08 11:53:00
6:53 AM,42.1,33.1,70,30.24,10.0,North,4.6,-,N/A,,Clear,10,2013-03-08 12:53:00
7:53 AM,48.9,33.1,54,30.26,10.0,NNE,6.9,-,N/A,,Clear,20,2013-03-08 13:53:00
8:53 AM,53.1,32.0,45,30.27,10.0,NNE,4.6,-,N/A,,Clear,20,2013-03-08 14:53:00
9:53 AM,57.9,32.0,37,30.27,10.0,Calm,Calm,-,N/A,,Clear,0,2013-03-08 15:53:00
10:53 AM,64.0,30.9,29,30.25,10.0,North,8.1,-,N/A,,Clear,350,2013-03-08 16:53:00
11:53 AM,66.9,28.0,23,30.21,10.0,North,3.5,-,N/A,,Clear,360,2013-03-08 17:53:00
12:53 PM,70.0,26.1,19,30.18,10.0,Calm,Calm,-,N/A,,Clear,0,2013-03-08 18:53:00
1:53 PM,72.0,21.9,15,30.16,10.0,Calm,Calm,-,N/A,,Clear,0,2013-03-08 19:53:00
2:53 PM,73.0,23.0,15,30.15,10.0,Variable,3.5,-,N/A,,Clear,0,2013-03-08 20:53:00
3:53 PM,73.0,24.1,16,30.15,10.0,North,6.9,-,N/A,,Clear,350,2013-03-08 21:53:00
4:53 PM,71.1,23.0,16,30.15,10.0,NW,4.6,-,N/A,,Clear,310,2013-03-08 22:53:00
5:53 PM,62.1,30.9,31,30.17,10.0,North,3.5,-,N/A,,Clear,350,2013-03-08 23:53:00
6:53 PM,57.0,33.1,40,30.19,10.0,East,5.8,-,N/A,,Clear,80,2013-03-09 00:53:00
7:53 PM,59.0,30.0,33,30.18,10.0,NE,3.5,-,N/A,,Clear,40,2013-03-09 01:53:00
8:53 PM,53.1,33.1,47,30.18,10.0,NNW,3.5,-,N/A,,Clear,340,2013-03-09 02:53:00
9:53 PM,50.0,35.1,57,30.19,10.0,North,3.5,-,N/A,,Clear,350,2013-03-09 03:53:00
10:53 PM,48.9,37.0,64,30.19,10.0,Calm,Calm,-,N/A,,Clear,0,2013-03-09 04:53:00
11:53 PM,48.9,36.0,61,30.16,10.0,Calm,Calm,-,N/A,,Clear,0,2013-03-09 05:53:00